Terug naar catalogus

DELTA 1 DEB

ActiefSSO
NORAD 10840·DEBRIS·🇺🇸 United States

Gelanceerd Jul 29, 1976 vanaf Vandenberg Space Force Base

Loading…

Volgende Passages (komende 24 uur)

TLE

VersSource: Space-Track

Epoch: Sep 14, 2026, 05:20 UTC

1 10840U 76077CL  26257.22243941  .00000038  00000-0  82004-3 0  9997
2 10840 102.6311 355.0678 0141412 240.4036 146.9433 12.16061920225765

Volg DELTA 1 DEB in realtime met AllMySat

Download on the App Store